| time (UTC) | temp C | wind direction | speed KPH | gust KPH | rain 1hr cm | rain 24hr cm | rain mn cm | humidity % | barometer mb |
| 20260510043026 | 9 | 154 | 0.0 | 0.0 | 0.00 | 0.00 | 0.00 | 89 | 1008.9 |
| 20260510041528 | 9 | 154 | 0.0 | 0.0 | 0.00 | 0.00 | 0.00 | 89 | 1008.9 |
| 20260510040023 | 9 | 154 | 0.0 | 0.0 | 0.00 | 0.00 | 0.00 | 89 | 1008.9 |
| 20260510034522 | 9 | 154 | 0.0 | 0.0 | 0.00 | 0.00 | 0.00 | 89 | 1009.0 |
| 20260510033021 | 9 | 154 | 0.0 | 0.0 | 0.00 | 0.00 | 0.00 | 89 | 1009.2 |
| 20260510031528 | 9 | 154 | 0.0 | 0.0 | 0.00 | 0.00 | 0.00 | 88 | 1009.2 |
| 20260510030019 | 9 | 154 | 0.0 | 0.0 | 0.00 | 0.00 | 0.00 | 88 | 1009.3 |
| 20260510024518 | 9 | 154 | 0.0 | 0.0 | 0.00 | 0.00 | 0.00 | 88 | 1009.3 |
| 20260510023017 | 9 | 154 | 0.0 | 3.2 | 0.00 | 0.00 | 0.00 | 87 | 1009.2 |
| 20260510021524 | 10 | 154 | 0.0 | 0.0 | 0.00 | 0.00 | 0.00 | 87 | 1009.2 |
| 20260510020019 | 10 | 154 | 0.0 | 0.0 | 0.00 | 0.00 | 0.00 | 87 | 1009.3 |
| 20260510014513 | 10 | 154 | 0.0 | 0.0 | 0.00 | 0.00 | 0.00 | 87 | 1009.6 |
| 20260510013011 | 10 | 154 | 0.0 | 0.0 | 0.00 | 0.00 | 0.00 | 86 | 1009.6 |
| 20260510011510 | 10 | 154 | 0.0 | 0.0 | 0.00 | 0.00 | 0.00 | 86 | 1009.8 |
| 20260510010009 | 10 | 154 | 0.0 | 0.0 | 0.00 | 0.00 | 0.00 | 86 | 1009.7 |
| 20260510004507 | 10 | 154 | 0.0 | 0.0 | 0.00 | 0.00 | 0.00 | 86 | 1009.7 |
| 20260510003006 | 10 | 154 | 0.0 | 0.0 | 0.00 | 0.00 | 0.00 | 86 | 1009.8 |
| 20260510001504 | 10 | 154 | 0.0 | 0.0 | 0.00 | 0.00 | 0.00 | 86 | 1009.9 |
| 20260510000002 | 10 | 154 | 0.0 | 0.0 | 0.00 | 0.00 | 0.00 | 85 | 1010.1 |
| 20260509234600 | 10 | 154 | 0.0 | 0.0 | 0.00 | 0.00 | 0.00 | 85 | 1010.3 |
| 20260509233058 | 11 | 154 | 0.0 | 0.0 | 0.00 | 0.00 | 0.00 | 84 | 1010.4 |
| 20260509231610 | 11 | 154 | 0.0 | 0.0 | 0.00 | 0.00 | 0.00 | 84 | 1010.5 |
| 20260509230103 | 11 | 154 | 0.0 | 0.0 | 0.00 | 0.00 | 0.00 | 84 | 1010.6 |
| 20260509224553 | 11 | 154 | 0.0 | 0.0 | 0.00 | 0.00 | 0.00 | 82 | 1010.6 |
| 20260509223058 | 11 | 154 | 0.0 | 0.0 | 0.00 | 0.00 | 0.00 | 81 | 1010.7 |
| 20260509221558 | 12 | 154 | 0.0 | 0.0 | 0.00 | 0.00 | 0.00 | 81 | 1010.5 |
| 20260509220046 | 12 | 154 | 0.0 | 0.0 | 0.00 | 0.00 | 0.00 | 80 | 1010.5 |
| 20260509214558 | 12 | 154 | 0.0 | 0.0 | 0.00 | 0.00 | 0.00 | 78 | 1010.4 |
| 20260509213044 | 12 | 154 | 0.0 | 0.0 | 0.00 | 0.00 | 0.00 | 77 | 1010.5 |
| 20260509211547 | 13 | 154 | 0.0 | 0.0 | 0.00 | 0.00 | 0.00 | 76 | 1010.6 |
| 20260509210047 | 13 | 154 | 0.0 | 0.0 | 0.00 | 0.00 | 0.00 | 74 | 1010.7 |
| 20260509204542 | 14 | 154 | 0.0 | 0.0 | 0.00 | 0.00 | 0.00 | 73 | 1010.7 |
| 20260509203043 | 15 | 154 | 0.0 | 0.0 | 0.00 | 0.00 | 0.00 | 72 | 1010.7 |
| 20260509201545 | 16 | 154 | 0.0 | 0.0 | 0.00 | 0.00 | 0.00 | 69 | 1010.6 |
| 20260509200046 | 16 | 154 | 0.0 | 4.8 | 0.00 | 0.00 | 0.00 | 65 | 1010.4 |
| 20260509194549 | 17 | 154 | 0.0 | 0.0 | 0.00 | 0.00 | 0.00 | 63 | 1010.3 |
| 20260509193041 | 18 | 154 | 1.6 | 4.8 | 0.00 | 0.00 | 0.00 | 61 | 1010.1 |
| 20260509191540 | 19 | 154 | 0.0 | 0.0 | 0.00 | 0.00 | 0.00 | 57 | 1009.9 |
| 20260509190038 | 20 | 154 | 0.0 | 0.0 | 0.00 | 0.00 | 0.00 | 54 | 1009.9 |
| 20260509184538 | 21 | 154 | 0.0 | 0.0 | 0.00 | 0.00 | 0.00 | 52 | 1009.9 |
| 20260509183057 | 21 | 154 | 0.0 | 0.0 | 0.00 | 0.00 | 0.00 | 50 | 1009.8 |
| 20260509181537 | 21 | 154 | 0.0 | 0.0 | 0.00 | 0.00 | 0.00 | 49 | 1009.8 |
| 20260509180036 | 21 | 154 | 0.0 | 4.8 | 0.00 | 0.00 | 0.00 | 48 | 1009.9 |
| 20260509174546 | 21 | 154 | 0.0 | 0.0 | 0.00 | 0.00 | 0.00 | 48 | 1009.7 |
| 20260509173036 | 22 | 154 | 0.0 | 3.2 | 0.00 | 0.00 | 0.00 | 46 | 1009.8 |
| 20260509171541 | 23 | 154 | 3.2 | 11.3 | 0.00 | 0.00 | 0.00 | 38 | 1010.0 |
| 20260509170034 | 23 | 149 | 1.6 | 9.7 | 0.00 | 0.00 | 0.00 | 37 | 1010.0 |
| 20260509164534 | 23 | 149 | 0.0 | 9.7 | 0.00 | 0.00 | 0.00 | 34 | 1009.9 |
| 20260509163043 | 24 | 149 | 1.6 | 12.9 | 0.00 | 0.00 | 0.00 | 35 | 1010.0 |
| 20260509161541 | 24 | 144 | 0.0 | 6.4 | 0.00 | 0.00 | 0.00 | 36 | 1010.0 |
| 20260509160029 | 24 | 144 | 1.6 | 11.3 | 0.00 | 0.00 | 0.00 | 34 | 1010.0 |
| 20260509154528 | 24 | 166 | 8.0 | 16.1 | 0.00 | 0.00 | 0.00 | 34 | 1010.2 |
| 20260509153042 | 24 | 184 | 3.2 | 14.5 | 0.00 | 0.00 | 0.00 | 35 | 1010.3 |
| 20260509151525 | 24 | 122 | 3.2 | 11.3 | 0.00 | 0.00 | 0.00 | 37 | 1010.3 |
| 20260509150033 | 22 | 124 | 0.0 | 1.6 | 0.00 | 0.00 | 0.00 | 46 | 1010.4 |
| 20260509144521 | 23 | 117 | 0.0 | 11.3 | 0.00 | 0.00 | 0.00 | 42 | 1010.5 |
| 20260509143021 | 23 | 109 | 3.2 | 12.9 | 0.00 | 0.00 | 0.00 | 43 | 1010.5 |
| 20260509141519 | 22 | 90 | 0.0 | 9.7 | 0.00 | 0.00 | 0.00 | 45 | 1010.6 |
| 20260509140018 | 23 | 113 | 1.6 | 12.9 | 0.00 | 0.00 | 0.00 | 44 | 1010.7 |
| 20260509134516 | 23 | 90 | 0.0 | 11.3 | 0.00 | 0.00 | 0.00 | 44 | 1010.8 |
| 20260509133015 | 25 | 169 | 0.0 | 11.3 | 0.00 | 0.00 | 0.00 | 44 | 1010.9 |
| 20260509131512 | 24 | 178 | 1.6 | 11.3 | 0.00 | 0.00 | 0.00 | 45 | 1011.1 |
| 20260509130009 | 23 | 190 | 1.6 | 6.4 | 0.00 | 0.00 | 0.00 | 46 | 1011.4 |
| 20260509124506 | 23 | 126 | 1.6 | 11.3 | 0.00 | 0.00 | 0.00 | 49 | 1011.3 |
| 20260509123005 | 22 | 105 | 1.6 | 9.7 | 0.00 | 0.00 | 0.00 | 48 | 1011.5 |
| 20260509121503 | 22 | 105 | 0.0 | 14.5 | 0.00 | 0.00 | 0.00 | 50 | 1011.8 |
| 20260509114558 | 22 | 98 | 0.0 | 12.9 | 0.00 | 0.00 | 0.00 | 54 | 1012.2 |
| 20260509113102 | 21 | 102 | 0.0 | 9.7 | 0.00 | 0.00 | 0.00 | 54 | 1012.3 |
| 20260509111553 | 22 | 107 | 3.2 | 14.5 | 0.00 | 0.00 | 0.00 | 53 | 1012.4 |
| 20260509110050 | 22 | 126 | 0.0 | 12.9 | 0.00 | 0.00 | 0.00 | 54 | 1012.7 |
| 20260509104547 | 21 | 132 | 4.8 | 12.9 | 0.00 | 0.00 | 0.00 | 55 | 1012.9 |
| 20260509103049 | 21 | 141 | 1.6 | 11.3 | 0.00 | 0.00 | 0.00 | 58 | 1013.1 |
| 20260509101541 | 20 | 147 | 3.2 | 12.9 | 0.00 | 0.00 | 0.00 | 59 | 1013.2 |
| 20260509100040 | 20 | 152 | 0.0 | 11.3 | 0.00 | 0.00 | 0.00 | 60 | 1013.1 |
| 20260509094533 | 19 | 155 | 1.6 | 16.1 | 0.00 | 0.00 | 0.00 | 63 | 1013.3 |
| 20260509093039 | 19 | 137 | 3.2 | 12.9 | 0.00 | 0.00 | 0.00 | 62 | 1013.3 |
| 20260509091526 | 18 | 128 | 0.0 | 11.3 | 0.00 | 0.00 | 0.00 | 65 | 1013.4 |
| 20260509090022 | 18 | 126 | 1.6 | 11.3 | 0.00 | 0.00 | 0.00 | 69 | 1013.5 |
| 20260509084523 | 17 | 130 | 0.0 | 11.3 | 0.00 | 0.00 | 0.00 | 72 | 1013.6 |
| 20260509083016 | 16 | 128 | 0.0 | 11.3 | 0.00 | 0.00 | 0.00 | 75 | 1013.7 |
| 20260509081509 | 15 | 124 | 4.8 | 14.5 | 0.00 | 0.00 | 0.00 | 76 | 1013.9 |
| 20260509080007 | 15 | 98 | 3.2 | 14.5 | 0.00 | 0.00 | 0.00 | 78 | 1014.0 |
| 20260509074504 | 14 | 96 | 3.2 | 12.9 | 0.00 | 0.00 | 0.00 | 82 | 1014.1 |
| 20260509073059 | 13 | 74 | 3.2 | 9.7 | 0.00 | 0.00 | 0.00 | 83 | 1014.1 |
| 20260509071609 | 13 | 50 | 0.0 | 6.4 | 0.00 | 0.00 | 0.00 | 86 | 1014.0 |
| 20260509070052 | 12 | 50 | 0.0 | 4.8 | 0.00 | 0.00 | 0.00 | 90 | 1014.1 |
| 20260509064548 | 11 | 50 | 0.0 | 6.4 | 0.00 | 0.00 | 0.00 | 92 | 1014.2 |
| 20260509063044 | 11 | 50 | 0.0 | 3.2 | 0.00 | 0.00 | 0.00 | 92 | 1014.1 |
| 20260509061547 | 10 | 50 | 0.0 | 4.8 | 0.00 | 0.00 | 0.00 | 92 | 1014.1 |
| 20260509060039 | 10 | 50 | 0.0 | 0.0 | 0.00 | 0.00 | 0.00 | 92 | 1014.1 |
| 20260509054535 | 10 | 50 | 1.6 | 4.8 | 0.00 | 0.00 | 0.00 | 92 | 1014.1 |
| 20260509053035 | 9 | 50 | 0.0 | 0.0 | 0.00 | 0.00 | 0.00 | 93 | 1014.0 |
| 20260509051534 | 8 | 50 | 0.0 | 0.0 | 0.00 | 0.00 | 0.00 | 92 | 1013.9 |
| 20260509050044 | 8 | 50 | 0.0 | 0.0 | 0.00 | 0.00 | 0.00 | 92 | 1013.9 |
| 20260509044526 | 7 | 50 | 0.0 | 0.0 | 0.00 | 0.00 | 0.00 | 91 | 1013.8 |